Glendive, MT

8:27 PM MST on December 14, 2019 (GMT -0700)
Dawson Community

Weather History for KGDV - October, 2019

Change the Weather History Date:

Wednesday, October 2, 2019

  Actual Average Record
Temperature  
Mean Temperature 36 °F 54 °F  
Max Temperature 39 °F 67 °F 91 °F (1997)
Min Temperature 32 °F 40 °F 26 °F (2002)
Degree Days  
Heating Degree Days 29 11  
Month to date heating degree days 57 22  
Year to date heating degree days 5924 4421  
Since 1 July heating degree days 358 129  
Cooling Degree Days 0 0  
Month to date cooling degree days 0 0  
Year to date cooling degree days 465 382  
Since 1 July cooling degree days 465 382  
Moisture  
Dew Point 35 °F    
Average Humidity 97    
Maximum Humidity 100    
Minimum Humidity 93    
Precipitation  
Precipitation 0.30 in 0.05 in 0.30 in (2019)
Month to date precipitation 0.37 0.10  
Year to date precipitation 17.54 11.76  
Sea Level Pressure  
Sea Level Pressure 30.21 in    
Wind  
Wind Speed 5 mph (ENE)    
Max Wind Speed 9 mph    
Max Gust Speed -    
Visibility 6 miles    
Events Fog , Rain , Snow    
T = Trace of Precipitation, MM = Missing Value Source: NWS Daily Summary

Daily Weather History Graph

Daily Weather History Graph

Search for Another Location

Airport or City:

Astronomy

Oct. 02, 2019 Rise Set
Actual Time 6:59 AM MDT 6:37 PM MDT
Civil Twilight 6:28 AM MDT 7:07 PM MDT
Nautical Twilight 5:53 AM MDT 7:42 PM MDT
Astronomical Twilight 5:17 AM MDT 8:18 PM MDT
Moon 11:43 AM MDT (10/2) 9:15 PM MDT (10/2)
Length of Visible Light 12h 38m
Length of Day
11h 37m
Waxing Crescent, 21% of the Moon is Illuminated
Oct 2
Waxing Crescent
Oct 5
First Quarter
Oct 13
Full
Oct 21
Last Quarter
Oct 27
New

Hourly Weather History & Observations

Time (MDT) Temp. Windchill Dew Point Humidity Pressure Visibility Wind Dir Wind Speed Gust Speed Precip Events Conditions
12:56 AM 36.0 °F - 36.0 °F 100% 30.26 in 10.0 mi Calm Calm - N/A   Overcast
1:30 AM 37.4 °F 34.9 °F 35.6 °F 93% 30.20 in 10.0 mi East 3.5 mph - N/A   Overcast
1:47 AM 37.4 °F 33.8 °F 35.6 °F 93% 30.20 in 10.0 mi ESE 4.6 mph - N/A   Overcast
1:56 AM 37.0 °F 33.3 °F 36.0 °F 96% 30.27 in 10.0 mi ESE 4.6 mph - N/A   Overcast
2:20 AM 37.4 °F 33.8 °F 35.6 °F 93% 30.21 in 10.0 mi East 4.6 mph - N/A   Overcast
2:48 AM 37.4 °F 33.8 °F 35.6 °F 93% 30.20 in 10.0 mi East 4.6 mph - N/A   Overcast
2:56 AM 37.0 °F 33.3 °F 36.0 °F 96% 30.26 in 10.0 mi East 4.6 mph - N/A   Overcast
3:14 AM 37.4 °F 33.8 °F 35.6 °F 93% 30.19 in 10.0 mi East 4.6 mph - N/A   Overcast
3:56 AM 37.0 °F 33.3 °F 36.0 °F 96% 30.25 in 10.0 mi ENE 4.6 mph - N/A   Overcast
4:56 AM 37.0 °F 32.4 °F 36.0 °F 96% 30.24 in 10.0 mi NE 5.8 mph - N/A   Overcast
5:56 AM 37.0 °F 31.6 °F 36.0 °F 96% 30.25 in 10.0 mi NE 6.9 mph - N/A   Overcast
6:33 AM 37.4 °F 32.1 °F 35.6 °F 93% 30.17 in 10.0 mi NE 6.9 mph - N/A   Overcast
6:56 AM 37.0 °F 31.0 °F 36.0 °F 96% 30.23 in 10.0 mi NE 8.1 mph - N/A   Overcast
7:12 AM 37.4 °F 31.4 °F 37.4 °F 100% 30.17 in 10.0 mi ENE 8.1 mph - N/A   Overcast
7:39 AM 37.4 °F - 37.4 °F 100% 30.16 in 9.0 mi North - - N/A   Overcast
7:56 AM 37.9 °F 32.1 °F 37.0 °F 97% 30.23 in 5.0 mi ENE 8.1 mph - N/A   Overcast
8:25 AM 37.4 °F 32.1 °F 37.4 °F 100% 30.18 in 4.0 mi East 6.9 mph - N/A   Overcast
8:56 AM 37.9 °F 32.7 °F 37.0 °F 97% 30.24 in 9.0 mi East 6.9 mph - N/A   Overcast
9:05 AM 37.4 °F 32.1 °F 37.4 °F 100% 30.18 in 9.0 mi East 6.9 mph - N/A   Overcast
9:56 AM 37.9 °F 32.1 °F 36.0 °F 93% 30.24 in 7.0 mi ESE 8.1 mph - 0.01 in Rain Light Rain
10:48 AM 37.4 °F 30.8 °F 35.6 °F 93% 30.18 in 6.0 mi ESE 9.2 mph - 0.04 in Rain Rain
10:56 AM 36.0 °F 29.0 °F 35.1 °F 97% 30.25 in 6.0 mi East 9.2 mph - 0.06 in Rain Light Rain
11:39 AM 33.8 °F 28.6 °F 32.0 °F 93% 30.18 in 0.8 mi ESE 5.8 mph - 0.05 in Snow Light Snow
11:56 AM 32.0 °F 27.5 °F 32.0 °F 100% 30.25 in 0.8 mi ENE 4.6 mph - 0.05 in Snow Light Snow
12:30 PM 32.0 °F 28.7 °F 32.0 °F 100% 30.18 in 1.0 mi NE 3.5 mph - 0.01 in Snow Light Snow
12:34 PM 32.0 °F 28.7 °F 32.0 °F 100% 30.18 in 0.8 mi NE 3.5 mph - 0.01 in Snow Light Snow
12:56 PM 32.0 °F 27.5 °F 32.0 °F 100% 30.25 in 1.0 mi NE 4.6 mph - 0.01 in Snow Light Snow
1:14 PM 33.8 °F 29.6 °F 32.0 °F 93% 30.17 in 1.2 mi NE 4.6 mph - 0.00 in Snow Light Snow
1:40 PM 33.8 °F 29.6 °F 32.0 °F 93% 30.17 in 1.8 mi NE 4.6 mph - 0.00 in Snow Light Snow
1:46 PM 33.8 °F - 33.8 °F 100% 30.17 in 3.0 mi North - - 0.00 in Snow Light Snow
1:56 PM 33.1 °F - 33.1 °F 100% 30.24 in 1.8 mi North - - 0.00 in Snow Light Snow
2:04 PM 33.8 °F 28.6 °F 33.8 °F 100% 30.16 in 0.8 mi NE 5.8 mph - 0.00 in Snow Light Snow
2:12 PM 33.8 °F 28.6 °F 33.8 °F 100% 30.16 in 0.5 mi NE 5.8 mph - 0.01 in Fog , Snow Light Snow
2:30 PM 33.8 °F 28.6 °F 33.8 °F 100% 30.16 in 1.0 mi NE 5.8 mph - 0.04 in Rain Light Rain
2:36 PM 33.8 °F 28.6 °F 33.8 °F 100% 30.15 in 2.0 mi NE 5.8 mph - 0.06 in Rain Light Rain
2:49 PM 33.8 °F - 33.8 °F 100% 30.15 in 6.0 mi North - - 0.10 in Rain Light Rain
2:56 PM 35.1 °F - 34.0 °F 96% 30.22 in 8.0 mi North - - 0.11 in Rain Light Rain
3:28 PM 35.6 °F 29.9 °F 35.6 °F 100% 30.15 in 10.0 mi ENE 6.9 mph - 0.05 in Rain Light Rain
3:56 PM 37.0 °F 31.6 °F 35.1 °F 93% 30.22 in 10.0 mi NE 6.9 mph - 0.06 in Rain Light Rain
4:56 PM 37.0 °F 31.6 °F 36.0 °F 96% 30.22 in 10.0 mi ENE 6.9 mph - 0.00 in   Overcast
5:56 PM 37.0 °F 32.4 °F 36.0 °F 96% 30.22 in 10.0 mi ENE 5.8 mph - N/A   Overcast
6:56 PM 37.0 °F 33.3 °F 35.1 °F 93% 30.24 in 10.0 mi ENE 4.6 mph - N/A   Overcast
7:56 PM 36.0 °F 30.3 °F 36.0 °F 100% 30.25 in 3.0 mi ENE 6.9 mph - N/A   Overcast
8:12 PM 35.6 °F 29.9 °F 35.6 °F 100% 30.19 in 2.0 mi ENE 6.9 mph - N/A   Overcast
8:56 PM 36.0 °F 32.1 °F 35.1 °F 97% 30.26 in 4.0 mi NE 4.6 mph - N/A   Overcast
9:16 PM 35.6 °F 31.7 °F 35.6 °F 100% 30.20 in 2.0 mi NE 4.6 mph - N/A   Overcast
9:33 PM 35.6 °F 31.7 °F 35.6 °F 100% 30.20 in 5.0 mi NE 4.6 mph - N/A   Overcast
9:56 PM 36.0 °F 33.3 °F 35.1 °F 97% 30.26 in 6.0 mi ENE 3.5 mph - N/A   Overcast
10:56 PM 35.1 °F 32.2 °F 35.1 °F 100% 30.27 in 6.0 mi ENE 3.5 mph - N/A   Overcast
11:56 PM 35.1 °F 32.2 °F 34.0 °F 96% 30.27 in 10.0 mi East 3.5 mph - N/A   Overcast